Flag for Greece

Past Weather in Rhodes, Rhodes, Greece — September 2015

Now
82 °F

Clear.


Feels Like: 89 °F
Forecast: 83 / 75 °F
Wind: 16 mph from West

Location: Rhodes Airport

Current Time: Jul 6, 2020 at 4:29:33 pm

Latest Report: Jul 6, 2020 at 3:20 pm


Visibility: 6 mi

Pressure: 29.53 "Hg

Humidity: 79%

Dew Point: 75 °F

Location of RhodesLocation

September 2015 Weather in Rhodes — Graph

°F

High & Low Weather Summary for September 2015

 TemperatureHumidityPressure
High95 °F (Sep 7, 1:50 pm)100% (Sep 25, 6:50 am)29.98 "Hg (Sep 25, 6:50 am)
Low70 °F (Sep 21, 5:50 am)34% (Sep 7, 1:50 pm)29.65 "Hg (Sep 22, 5:20 pm)
Average79 °F73%29.85 "Hg
* Reported Sep 1 12:20 am — Sep 30 11:50 pm, Rhodes. Weather by CustomWeather, © 2020

Note: Actual official high and low records may vary slightly from our data, if they occured in-between our weather recording intervals... More about our weather records

Rhodes Weather History for September 1, 2015

Scroll right to see more
 ConditionsComfort  
Time TempWeatherWind HumidityBarometerVisibility
12:20 am
Tue, Sep 1
77 °FClear.12 mph83%29.86 "Hg10 mi
12:50 am77 °FClear.12 mph83%29.86 "Hg10 mi
1:50 am77 °FClear.9 mph89%29.86 "Hg10 mi
2:20 am77 °FClear.8 mph89%29.86 "Hg10 mi
2:50 am75 °FClear.9 mph89%29.83 "Hg10 mi
3:20 am75 °FClear.12 mph89%29.83 "Hg10 mi
3:50 am75 °FClear.12 mph89%29.83 "Hg10 mi
4:20 am75 °FClear.9 mph89%29.83 "Hg10 mi
4:50 am75 °FClear.9 mph89%29.83 "Hg10 mi
5:20 am75 °FClear.12 mph89%29.83 "Hg10 mi
5:50 am75 °FClear.9 mph69%29.83 "Hg10 mi
6:20 am75 °FClear.9 mph69%29.83 "Hg10 mi
7:50 am77 °FSunny.7 mph65%29.86 "Hg10 mi
8:20 am79 °FSunny.7 mph61%29.86 "Hg10 mi
8:50 am79 °FSunny.10 mph79%29.86 "Hg10 mi
9:20 am79 °FSunny.10 mph79%29.86 "Hg10 mi
9:50 am79 °FSunny.14 mph79%29.86 "Hg10 mi
10:20 am79 °FSunny.13 mph79%29.86 "Hg10 mi
10:50 am81 °FSunny.13 mph79%29.86 "Hg10 mi
11:20 am81 °FSunny.13 mph79%29.86 "Hg10 mi
11:50 am81 °FSunny.14 mph79%29.86 "Hg10 mi
12:20 pm81 °FSunny.15 mph79%29.86 "Hg10 mi
12:50 pm82 °FSunny.15 mph70%29.86 "Hg10 mi
1:20 pm82 °FSunny.15 mph70%29.86 "Hg10 mi
1:50 pm84 °FSunny.17 mph66%29.86 "Hg10 mi
2:20 pm84 °FSunny.15 mph66%29.86 "Hg10 mi
2:50 pm84 °FSunny.16 mph66%29.86 "Hg10 mi
3:20 pm84 °FSunny.15 mph66%29.86 "Hg10 mi
3:50 pm82 °FSunny.16 mph70%29.86 "Hg10 mi
4:20 pm82 °FSunny.16 mph70%29.86 "Hg10 mi
4:50 pm82 °FSunny.17 mph70%29.86 "Hg10 mi
5:20 pm82 °FSunny.18 mph70%29.86 "Hg10 mi
5:50 pm81 °FSunny.17 mph79%29.83 "Hg10 mi
6:20 pm81 °FSunny.18 mph79%29.83 "Hg10 mi
6:50 pm81 °FSunny.17 mph79%29.83 "Hg10 mi
7:20 pm79 °FSunny.16 mph84%29.83 "Hg10 mi
7:50 pm79 °FSunny.15 mph84%29.86 "Hg10 mi
8:20 pm77 °FSunny.14 mph89%29.83 "Hg10 mi
8:50 pm77 °FClear.13 mph83%29.86 "Hg10 mi
9:20 pm77 °FClear.12 mph83%29.86 "Hg10 mi
9:50 pm77 °FClear.9 mph83%29.86 "Hg10 mi
10:20 pm77 °FClear.9 mph83%29.86 "Hg10 mi
10:50 pm77 °FClear.12 mph83%29.86 "Hg10 mi
11:20 pm77 °FClear.12 mph83%29.86 "Hg10 mi
11:50 pm77 °FClear.10 mph83%29.86 "Hg10 mi
Weather by CustomWeather, © 2020

See weather overview